072  
ASUS46 KSEW 201020  
RWRWA  
 
WASHINGTON REGIONAL WEATHER ROUNDUP  
NATIONAL WEATHER SERVICE SEATTLE WA  
200 AM PST THU FEB 20 2020  
 
NOTE:"FAIR" INDICATES FEW OR NO CLOUDS BELOW 12,000 FEET WITH NO  
SIGNIFICANT WEATHER AND/OR S TO VISIBILITY
.  
 
WAZ507-509-555>559-201100-  
SEATTLE, TACOMA, EVERETT, AND VICINITY  
 
CITY SKY/WX TMP DP RH WIND PRES REMARKS
 
EVERETT CLEAR 41 20 43 SE5 30.25S  
BOEING FIELD CLEAR 40 22 48 CALM 30.26S  
RENTON CLEAR 44 19 36 CALM 30.25F  
SEATAC AIRPORT CLEAR 45 20 36 SE15 30.24F  
JBLM-MCCHORD CLEAR 28 25 89 E3 30.24S  
PUYALLUP FAIR 28 28 100 CALM 30.24S  
BREMERTON CLEAR 26 24 92 CALM 30.25S  
JBLM-FT LEWIS CLEAR 26 26 100 SE8 30.23S  
TACOMA NARROWS CLEAR 42 21 43 E8 30.23F  

 
 
WAZ001-503-506-510-514-515-201100-  
NORTH INTERIOR  
 
CITY SKY/WX TMP DP RH WIND PRES REMARKS
 
BELLINGHAM CLEAR 29 25 85 CALM 30.26S  
FRIDAY HARBOR CLEAR 35 32 88 CALM 30.28R  
EASTSOUND CLEAR 32 32 100 CALM 30.27S  
PORT ANGELES MOCLDY 33 31 92 SW7 30.25S  
EDIZ HOOK FAIR 38 35 89 SW9 30.26R  
PORT TOWNSEND FAIR 23 23 100 CALM 30.26R  
NAS WHIDBEY CLEAR 35 29 78 SE7 30.31R  
ARLINGTON CLEAR 27 25 92 CALM 30.28R  
BURLINGTON CLEAR 37 32 81 NE7 30.27S  

 
 
WAZ020-022-039-040-504-511-512-201100-  
SOUTHWEST INTERIOR  
 
CITY SKY/WX TMP DP RH WIND PRES REMARKS
 
SHELTON CLEAR 25 24 96 CALM 30.23S  
OLYMPIA CLEAR 25 22 88 CALM 30.24F  
CHEHALIS FAIR 28 28 100 CALM 30.25R  
KELSO CLEAR 28 26 92 CALM 30.25S  
VANCOUVER CLEAR 45 19 35 VRB6 30.23S  
SCAPPOOSE, OR CLEAR 30 25 81 W6 30.24S  
PORTLAND, OR CLEAR 44 23 43 E14 30.23S  

 
 
WAZ021-516-517-201100-  
WASHINGTON COAST  
 
CITY SKY/WX TMP DP RH WIND PRES REMARKS
 
FORKS PTCLDY 32 30 92 E5 30.20S  
HOQUIAM CLEAR 38 32 79 E9 30.20S  
ASTORIA, OR CLEAR 41 26 55 E8 30.17F  

 
 
WAZ019-023-024-040-567>569-201100-  
CASCADE MOUNTAINS AND COLUMBIA GORGE  
 
CITY SKY/WX TMP DP RH WIND PRES REMARKS
 
STAMPEDE PASS CLEAR 24 18 77 VRB6 30.23F  
TROUTDALE, OR CLEAR 44 23 43 E21G29 30.24S  
HOOD RIVER, OR SUNNY 28 25 86 CALM 30.38F  
THE DALLES, OR CLEAR 27 21 78 NE3 30.41S  

 
 
WAZ026-027-041>044-520-521-201100-  
EAST SLOPES  
 
CITY SKY/WX TMP DP RH WIND PRES REMARKS
 
OMAK CLEAR 25 16 68 W5 30.43F  
WENATCHEE CLEAR 28 18 66 CALM 30.42F  
ELLENSBURG CLEAR 23 15 71 CALM 30.39S  
YAKIMA CLEAR 21 13 71 W8 30.42S  
SUNNYSIDE ARPT SUNNY 21 18 88 CALM 30.42S  
YAKIMA TC FAIR 23 16 76 E7 30.38F  

 
 
WAZ028-034-035-201100-  
COLUMBIA BASIN  
 
CITY SKY/WX TMP DP RH WIND PRES REMARKS
 
EPHRATA CLEAR 24 17 74 N6 30.41S  
MOSES LAKE CLEAR 25 18 74 N8 30.42S  
PASCO CLEAR 23 19 85 N5 30.44S  
RICHLAND ARPT SUNNY 25 20 83 W7 30.44  
HERMISTON, OR CLEAR 22 19 89 CALM 30.39F  

 
 
WAZ036>038-201100-  
NORTHEAST WASHINGTON  
 
CITY SKY/WX TMP DP RH WIND PRES REMARKS
 
SPOKANE GEIGER CLEAR 27 19 72 E9 30.39S  
SPOKANE FELTS CLEAR 26 20 77 CALM 30.42S  
FAIRCHILD AFB CLEAR 25 24 94 NE10 30.38R WCI 15  
COEURDALENE,ID CLEAR 22 19 89 NE7 30.42R  
DEER PARK CLEAR 25 15 66 N5 30.41R  

 
 
WAZ029>033-201100-  
SOUTHEAST WASHINGTON  
 
CITY SKY/WX TMP DP RH WIND PRES REMARKS
 
PULLMAN CLEAR 28 22 78 E14 30.39R WCI 17  
LEWISTON, ID CLEAR 33 20 58 SE5 30.42S  
WALLA WALLA CLEAR 28 23 81 CALM 30.38S  
PENDLETON, OR CLEAR 32 19 58 S7 30.36S  

 
 
 
CLICK HERE TO GO TO PREVIOUS BULLETINS.

The Nexlab WA Page Main Text Page